Roseau, MN

2:35 PM CST on February 11, 2016 (GMT -0600)
Roseau Municipal-Billberg

Weather History for KROX - March, 2014

Change the Weather History Date:

Friday, March 7, 2014

  Actual Average Record
Temperature  
Mean Temperature 14 °F -  
Max Temperature 24 °F 25 °F 46 °F (1968)
Min Temperature 3 °F 0 °F -32 °F (1955)
Degree Days  
Heating Degree Days 52    
Moisture  
Dew Point 11 °F    
Average Humidity 76    
Maximum Humidity 86    
Minimum Humidity 62    
Precipitation  
Precipitation 0.03 in - - ()
Sea Level Pressure  
Sea Level Pressure 30.04 in    
Wind  
Wind Speed 11 mph (NNW)    
Max Wind Speed 22 mph    
Max Gust Speed 25 mph    
Visibility 9 miles    
Events Snow    
Averages and records for this station are not official NWS values.
T = Trace of Precipitation, MM = Missing Value Source: NWS Daily Summary

Daily Weather History Graph

Daily Weather History Graph

Search for Another Location

Airport or City:

Trip Planner

Search our weather history database for the weather conditions in past years. The results will help you decide how hot, cold, wet, or windy it might be!

Date:

Astronomy

Mar. 07, 2014 Rise Set
Actual Time 6:52 AM CST 6:15 PM CST
Civil Twilight 6:21 AM CST 6:47 PM CST
Nautical Twilight 5:44 AM CST 7:23 PM CST
Astronomical Twilight 5:07 AM CST 8:01 PM CST
Moon 10:15 AM CST (3/7) 12:51 AM CST (3/7)
Length of Visible Light 12h 26m
Length of Day
11h 23m
Waxing Crescent, 42% of the Moon is Illuminated
Mar 7
Waxing Crescent
Mar 8
First Quarter
Mar 16
Full
Mar 23
Last Quarter
Mar 30
New

Hourly Weather History & Observations

Time (CST) Temp. Windchill Dew Point Humidity Pressure Visibility Wind Dir Wind Speed Gust Speed Precip Events Conditions
12:14 AM 24.8 °F 15.3 °F 19.4 °F 80% 29.69 in 5.0 mi NNE 9.2 mph - 0.01 in   Haze
12:34 AM 24.8 °F 17.9 °F 21.2 °F 86% 29.70 in 2.5 mi North 5.8 mph - 0.01 in Snow Light Snow
12:55 AM 24.8 °F 15.3 °F 19.4 °F 80% 29.70 in 5.0 mi North 9.2 mph - 0.02 in   Scattered Clouds
1:14 AM 24.8 °F 15.3 °F 19.4 °F 80% 29.70 in 5.0 mi North 9.2 mph - N/A   Scattered Clouds
1:34 AM 24.8 °F 14.6 °F 19.4 °F 80% 29.72 in 5.0 mi NNW 10.4 mph - N/A   Scattered Clouds
1:54 AM 24.8 °F 14.0 °F 19.4 °F 80% 29.73 in 4.0 mi NNW 11.5 mph - N/A   Haze
2:14 AM 23.0 °F 11.7 °F 19.4 °F 86% 29.73 in 3.0 mi North 11.5 mph - N/A   Overcast
2:34 AM 23.0 °F 11.1 °F 19.4 °F 86% 29.73 in 4.0 mi North 12.7 mph - N/A   Overcast
2:54 AM 23.0 °F 11.1 °F 19.4 °F 86% 29.74 in 4.0 mi NNW 12.7 mph - 0.01 in   Overcast
3:14 AM 23.0 °F 10.6 °F 19.4 °F 86% 29.75 in 5.0 mi NNW 13.8 mph - N/A   Overcast
3:34 AM 23.0 °F 11.7 °F 19.4 °F 86% 29.76 in 7.0 mi NNW 11.5 mph - N/A   Overcast
3:54 AM 23.0 °F 10.1 °F 17.6 °F 80% 29.77 in 10.0 mi NNW 15.0 mph - N/A   Overcast
4:14 AM 23.0 °F 8.3 °F 17.6 °F 80% 29.78 in 10.0 mi NNW 19.6 mph 23.0 mph N/A   Overcast
4:34 AM 21.2 °F 6.8 °F 17.6 °F 86% 29.80 in 10.0 mi NNW 17.3 mph - N/A   Overcast
4:54 AM 21.2 °F 6.4 °F 17.6 °F 86% 29.82 in 10.0 mi NNW 18.4 mph - N/A   Overcast
5:14 AM 21.2 °F 6.8 °F 17.6 °F 86% 29.82 in 10.0 mi North 17.3 mph - N/A   Overcast
5:34 AM 21.2 °F 7.8 °F 17.6 °F 86% 29.83 in 10.0 mi North 15.0 mph - N/A   Overcast
5:54 AM 21.2 °F 7.3 °F 15.8 °F 80% 29.85 in 10.0 mi North 16.1 mph - N/A   Overcast
6:14 AM 21.2 °F 7.3 °F 15.8 °F 80% 29.87 in 10.0 mi North 16.1 mph 21.9 mph N/A   Overcast
6:34 AM 21.2 °F 6.8 °F 15.8 °F 80% 29.89 in 7.0 mi North 17.3 mph - N/A Snow Light Snow
6:54 AM 21.2 °F 7.3 °F 15.8 °F 80% 29.90 in 4.0 mi North 16.1 mph - N/A Snow Light Snow
7:14 AM 19.4 °F 4.5 °F 15.8 °F 86% 29.92 in 5.0 mi North 17.3 mph - N/A Snow Light Snow
7:34 AM 19.4 °F 3.2 °F 14.0 °F 80% 29.93 in 10.0 mi North 20.7 mph 25.3 mph N/A Snow Light Snow
7:54 AM 17.6 °F 2.7 °F 12.2 °F 79% 29.95 in 10.0 mi North 16.1 mph 24.2 mph N/A Snow Light Snow
8:14 AM 17.6 °F 1.7 °F 12.2 °F 79% 29.96 in 10.0 mi North 18.4 mph 23.0 mph N/A   Scattered Clouds
8:34 AM 17.6 °F 1.7 °F 12.2 °F 79% 29.98 in 10.0 mi North 18.4 mph - N/A   Mostly Cloudy
8:54 AM 17.6 °F 0.5 °F 12.2 °F 79% 29.99 in 10.0 mi North 21.9 mph - N/A   Overcast
9:14 AM 15.8 °F -0.2 °F 10.4 °F 79% 30.00 in 10.0 mi North 17.3 mph 21.9 mph N/A   Scattered Clouds
9:34 AM 17.6 °F 5.0 °F 10.4 °F 73% 30.01 in 10.0 mi North 11.5 mph - N/A   Clear
9:54 AM 17.6 °F 4.3 °F 10.4 °F 73% 30.03 in 10.0 mi North 12.7 mph - N/A   Clear
10:14 AM 17.6 °F 5.0 °F 12.2 °F 79% 30.03 in 10.0 mi North 11.5 mph - N/A   Clear
10:34 AM 17.6 °F 5.0 °F 12.2 °F 79% 30.04 in 10.0 mi North 11.5 mph - N/A   Clear
10:54 AM 17.6 °F 4.3 °F 10.4 °F 73% 30.05 in 10.0 mi North 12.7 mph - N/A   Mostly Cloudy
11:14 AM 19.4 °F 5.5 °F 12.2 °F 74% 30.06 in 10.0 mi North 15.0 mph - N/A Snow Light Snow
11:34 AM 19.4 °F 6.0 °F 12.2 °F 74% 30.07 in 7.0 mi North 13.8 mph 19.6 mph N/A Snow Light Snow
11:54 AM 19.4 °F 6.0 °F 12.2 °F 74% 30.08 in 10.0 mi NNE 13.8 mph - N/A   Mostly Cloudy
12:13 PM 19.4 °F 7.2 °F 12.2 °F 74% 30.10 in 10.0 mi North 11.5 mph - N/A   Mostly Cloudy
12:34 PM 19.4 °F 7.2 °F 12.2 °F 74% 30.11 in 10.0 mi North 11.5 mph - N/A   Mostly Cloudy
12:54 PM 19.4 °F 7.9 °F 12.2 °F 74% 30.12 in 10.0 mi North 10.4 mph - N/A   Mostly Cloudy
1:14 PM 19.4 °F 6.6 °F 12.2 °F 74% 30.12 in 10.0 mi North 12.7 mph - N/A   Scattered Clouds
1:34 PM 21.2 °F 10.9 °F 12.2 °F 68% 30.12 in 10.0 mi North 9.2 mph - N/A   Mostly Cloudy
1:54 PM 21.2 °F 11.7 °F 12.2 °F 68% 30.13 in 10.0 mi NNE 8.1 mph - N/A   Scattered Clouds
2:14 PM 21.2 °F 10.1 °F 12.2 °F 68% 30.13 in 10.0 mi North 10.4 mph - N/A   Scattered Clouds
2:34 PM 21.2 °F 10.9 °F 10.4 °F 63% 30.14 in 10.0 mi North 9.2 mph - N/A   Scattered Clouds
2:54 PM 21.2 °F 11.7 °F 12.2 °F 68% 30.14 in 10.0 mi North 8.1 mph - N/A   Scattered Clouds
3:14 PM 21.2 °F 10.1 °F 10.4 °F 63% 30.15 in 10.0 mi North 10.4 mph - N/A   Scattered Clouds
3:34 PM 21.2 °F 11.7 °F 10.4 °F 63% 30.16 in 10.0 mi North 8.1 mph - N/A   Clear
3:54 PM 21.2 °F 10.1 °F 10.4 °F 63% 30.16 in 10.0 mi North 10.4 mph - N/A   Clear
4:14 PM 21.2 °F 11.7 °F 10.4 °F 63% 30.17 in 10.0 mi North 8.1 mph - N/A   Scattered Clouds
4:34 PM 19.4 °F 9.5 °F 10.4 °F 68% 30.17 in 10.0 mi North 8.1 mph - N/A   Clear
4:54 PM 19.4 °F 8.6 °F 8.6 °F 63% 30.18 in 10.0 mi North 9.2 mph - N/A   Clear
5:14 PM 17.6 °F 5.7 °F 8.6 °F 68% 30.18 in 10.0 mi NNW 10.4 mph - N/A   Clear
5:34 PM 15.8 °F 6.1 °F 6.8 °F 68% 30.19 in 10.0 mi North 6.9 mph - N/A   Clear
5:54 PM 14.0 °F 5.1 °F 5.0 °F 67% 30.21 in 10.0 mi NNW 5.8 mph - N/A   Clear
6:14 PM 14.0 °F 2.9 °F 3.2 °F 62% 30.21 in 10.0 mi West 8.1 mph - N/A   Clear
6:34 PM 12.2 °F -0.2 °F 3.2 °F 67% 30.22 in 10.0 mi West 9.2 mph - N/A   Clear
6:54 PM 10.4 °F -1.5 °F 3.2 °F 73% 30.23 in 10.0 mi WNW 8.1 mph - N/A   Clear
7:14 PM 10.4 °F -2.4 °F 3.2 °F 73% 30.24 in 10.0 mi WNW 9.2 mph - N/A   Clear
7:34 PM 10.4 °F -0.4 °F 1.4 °F 67% 30.24 in 10.0 mi WNW 6.9 mph - N/A   Clear
7:54 PM 10.4 °F -2.4 °F 1.4 °F 67% 30.25 in 10.0 mi WNW 9.2 mph - N/A   Clear
8:14 PM 8.6 °F -4.7 °F 1.4 °F 73% 30.26 in 10.0 mi WNW 9.2 mph - N/A   Clear
8:34 PM 6.8 °F -6.9 °F -0.4 °F 72% 30.26 in 10.0 mi NW 9.2 mph - N/A   Clear
8:54 PM 6.8 °F -6.9 °F -0.4 °F 72% 30.27 in 10.0 mi NW 9.2 mph - N/A   Clear
9:14 PM 5.0 °F -4.1 °F -0.4 °F 78% 30.28 in 10.0 mi NW 4.6 mph - N/A   Clear
9:34 PM 6.8 °F -0.1 °F -0.4 °F 72% 30.28 in 10.0 mi NNW 3.5 mph - N/A   Clear
9:54 PM 5.0 °F -2.1 °F -2.2 °F 72% 30.29 in 10.0 mi WNW 3.5 mph - N/A   Clear
10:14 PM 3.2 °F - -0.4 °F 85% 30.29 in 10.0 mi Calm Calm - N/A   Clear
10:34 PM 3.2 °F - -2.2 °F 78% 30.29 in 10.0 mi Calm Calm - N/A   Clear
10:54 PM 3.2 °F -4.2 °F -2.2 °F 78% 30.29 in 10.0 mi West 3.5 mph - N/A   Clear
11:14 PM 3.2 °F -4.2 °F -2.2 °F 78% 30.30 in 10.0 mi WNW 3.5 mph - N/A   Clear
11:34 PM 3.2 °F -7.8 °F -2.2 °F 78% 30.30 in 10.0 mi West 5.8 mph - N/A   Clear
11:54 PM 3.2 °F -9.1 °F -2.2 °F 78% 30.30 in 10.0 mi West 6.9 mph - N/A   Clear